Chadron, NE

1:12 AM MDT on April 25, 2017 (GMT -0600)
Chadron Municipal

Weather History for KCDR - March, 2012

Change the Weather History Date:

Monday, March 5, 2012

  Actual Average Record
Temperature  
Mean Temperature 45 °F 32 °F  
Max Temperature 67 °F 48 °F 74 °F (1950)
Min Temperature 22 °F 18 °F -26 °F (1989)
Degree Days  
Heating Degree Days 20 32  
Month to date heating degree days 147 165  
Since 1 July heating degree days 4980 5417  
Cooling Degree Days 0 0  
Month to date cooling degree days 0 0  
Year to date cooling degree days 0 0  
Moisture  
Dew Point 23 °F    
Average Humidity 52    
Maximum Humidity 88    
Minimum Humidity 15    
Precipitation  
Precipitation 0.00 in 0.04 in 1.38 in (1983)
Month to date precipitation T 0.17  
Year to date precipitation 1.21 1.14  
Sea Level Pressure  
Sea Level Pressure 29.87 in    
Wind  
Wind Speed 10 mph (WSW)    
Max Wind Speed 23 mph    
Max Gust Speed 31 mph    
Visibility 10 miles    
Events      
T = Trace of Precipitation, MM = Missing Value Source: NWS Daily Summary

Daily Weather History Graph

Daily Weather History Graph

Search for Another Location

Airport or City:

Trip Planner

Search our weather history database for the weather conditions in past years. The results will help you decide how hot, cold, wet, or windy it might be!

Date:

Astronomy

Mar. 05, 2012 Rise Set
Actual Time 6:20 AM MST 5:47 PM MST
Civil Twilight 5:52 AM MST 6:15 PM MST
Nautical Twilight 5:19 AM MST 6:48 PM MST
Astronomical Twilight 4:46 AM MST 7:21 PM MST
Moon 3:05 PM MST (3/5) 4:25 AM MST (3/5)
Length of Visible Light 12h 23m
Length of Day
11h 26m
Waxing Gibbous, 91% of the Moon is Illuminated
Mar 5
Waxing Gibbous
Mar 8
Full
Mar 14
Last Quarter
Mar 22
New
Mar 30
First Quarter

Hourly Weather History & Observations

Time (MST) Temp. Windchill Dew Point Humidity Pressure Visibility Wind Dir Wind Speed Gust Speed Precip Events Conditions
12:53 AM 24.1 °F - 21.0 °F 88% 30.08 in 10.0 mi Calm Calm - N/A   Clear
1:53 AM 26.1 °F - 21.9 °F 84% 30.05 in 10.0 mi Calm Calm - N/A   Clear
2:53 AM 30.9 °F 24.3 °F 25.0 °F 79% 30.01 in 10.0 mi WSW 6.9 mph - N/A   Clear
3:53 AM 36.0 °F 27.5 °F 27.0 °F 70% 29.99 in 10.0 mi SW 12.7 mph - N/A   Clear
4:53 AM 30.9 °F 25.2 °F 24.1 °F 76% 30.01 in 10.0 mi West 5.8 mph - N/A   Clear
5:53 AM 28.9 °F 18.6 °F 23.0 °F 78% 30.03 in 10.0 mi SW 12.7 mph - N/A   Clear
6:53 AM 28.9 °F 20.4 °F 23.0 °F 78% 30.03 in 10.0 mi WSW 9.2 mph - N/A   Clear
7:53 AM 37.9 °F 30.5 °F 28.0 °F 68% 30.02 in 10.0 mi WSW 11.5 mph - N/A   Clear
8:53 AM 46.0 °F 41.0 °F 27.0 °F 47% 30.00 in 10.0 mi WSW 10.4 mph - N/A   Clear
9:53 AM 54.0 °F - 26.1 °F 34% 29.96 in 10.0 mi West 10.4 mph - N/A   Clear
10:53 AM 57.0 °F - 21.9 °F 26% 29.92 in 10.0 mi SW 6.9 mph - N/A   Clear
11:53 AM 61.0 °F - 21.9 °F 22% 29.88 in 10.0 mi Calm Calm - N/A   Clear
12:53 PM 64.0 °F - 21.0 °F 19% 29.85 in 10.0 mi West 19.6 mph 25.3 mph N/A   Clear
1:53 PM 64.9 °F - 21.0 °F 19% 29.80 in 10.0 mi WSW 16.1 mph - N/A   Clear
2:53 PM 66.0 °F - 18.0 °F 16% 29.77 in 10.0 mi West 15.0 mph 24.2 mph N/A   Clear
3:53 PM 66.0 °F - 21.0 °F 18% 29.73 in 10.0 mi West 17.3 mph - N/A   Clear
4:53 PM 62.1 °F - 21.0 °F 21% 29.74 in 10.0 mi West 19.6 mph - N/A   Clear
5:53 PM 54.0 °F - 24.1 °F 31% 29.77 in 10.0 mi WSW 12.7 mph - N/A   Clear
6:53 PM 46.0 °F 40.2 °F 24.1 °F 42% 29.78 in 10.0 mi SSW 12.7 mph - N/A   Clear
7:53 PM 44.1 °F 40.1 °F 24.1 °F 45% 29.76 in 10.0 mi SW 6.9 mph - N/A   Clear
8:53 PM 37.0 °F 30.4 °F 23.0 °F 57% 29.75 in 10.0 mi WSW 9.2 mph - N/A   Clear
9:53 PM 33.1 °F 25.5 °F 23.0 °F 66% 29.71 in 10.0 mi WSW 9.2 mph - N/A   Clear
10:53 PM 32.0 °F 26.4 °F 24.1 °F 73% 29.69 in 10.0 mi SSW 5.8 mph - N/A   Clear
11:53 PM 41.0 °F 37.1 °F 24.1 °F 51% 29.64 in 10.0 mi WSW 5.8 mph - N/A   Clear